133  
AXUS43 KGID 151702  
MISGRI  
 
GID CWA HOURLY WEATHER ROUNDUP  
NATIONAL WEATHER SERVICE HASTINGS NE  
1200 PM CDT WED AUG 15 2018  
 
NOTE: "FAIR" INDICATES FEW OR NO CLOUDS BELOW 12,000 FEET WITH NO  
SIGNIFICANT WEATHER AND/OR OBSTRUCTIONS TO VISIBILITY.  
   
..SOUTH CENTRAL NEBRASKA
 
 
 
CITY SKY/WX TMP DP RH WIND PRES REMARKS  
GRAND ISLAND SUNNY 78 66 66 NE7 30.00S  
KEARNEY SUNNY 76 65 68 CALM 30.02R  
HASTINGS SUNNY 77 68 73 NE8 30.01R  
ORD SUNNY 78 66 66 VRB7 29.98F  
YORK MOSUNNY 75 66 73 NE9 29.97F  
AURORA PTSUNNY 76 68 76 N8 29.99S  
LEXINGTON SUNNY N/A N/A N/A S3 30.03S  
HOLDREGE SUNNY 75 65 70 NE3 30.02S  
HEBRON CLOUDY 76 67 73 NE13 29.96S  
   
..NEBRASKA PANHANDLE
 
 
 
CITY SKY/WX TMP DP RH WIND PRES REMARKS  
CHADRON PTSUNNY 71 58 63 NE10 30.04R  
ALLIANCE SUNNY 74 61 63 W5 30.04S  
SCOTTSBLUFF PTSUNNY 68 61 78 S6 30.06S  
SIDNEY SUNNY 81 56 42 S7 30.05S  
   
..WESTERN AND NORTH CENTRAL NEBRASKA
 
 
 
CITY SKY/WX TMP DP RH WIND PRES REMARKS  
VALENTINE TSTM 66 64 93 NW13 30.04R FOG  
AINSWORTH CLOUDY 75 66 73 E5 30.01S  
ONEILL SUNNY 77 66 69 SE5 30.00S  
BROKEN BOW SUNNY 78 65 63 E6 30.01S  
IMPERIAL SUNNY 78 58 49 SE17G24 30.02F  
NORTH PLATTE SUNNY 81 58 45 VRB6 30.02S  
MCCOOK SUNNY 78 62 57 S5 30.02F  
   
..EASTERN NEBRASKA
 
 
 
CITY SKY/WX TMP DP RH WIND PRES REMARKS  
NORFOLK SUNNY 79 63 57 E6 29.97R  
SO SIOUX CITY SUNNY 81 63 54 MISG 29.95S  
TEKAMAH CLOUDY 77 67 71 NW3 29.94S  
COLUMBUS SUNNY 77 67 71 VRB7 29.98R  
ALBION MOSUNNY 78 67 69 E8 29.99S  
OMAHA EPPLEY CLOUDY 71 66 84 N6 29.93S  
OFFUTT AFB CLOUDY 70 66 89 N6 29.92S  
MILLARD CLOUDY 71 67 89 N5 29.94S  
LINCOLN CLOUDY 73 67 81 NE8 29.95S  
NEBRASKA CITY CLOUDY 72 72 100 CALM 29.93S FOG  
BEATRICE CLOUDY 73 71 93 N8 29.95S  
FALLS CITY CLOUDY 73 71 93 NW3 29.91R  
   
..NORTHERN KANSAS
 
 
 
CITY SKY/WX TMP DP RH WIND PRES REMARKS  
GOODLAND SUNNY 80 56 43 S15 30.04F  
HILL CITY SUNNY 77 62 59 VRB3 30.03F  
NORTON SUNNY 77 64 65 CALM 30.03S  
PHILLIPSBURG SUNNY 79 63 57 SW5 30.01F  
SMITH CENTER MOSUNNY 79 64 61 CALM 30.01R  
HAYS SUNNY 78 64 61 VRB3 30.02S  
RUSSELL SUNNY 77 69 76 NW5 29.99F  
CONCORDIA MOSUNNY 78 67 68 N14G21 29.95S  
SALINA CLOUDY 78 67 68 NW13 29.95F  
TOPEKA CLOUDY 76 72 87 W9 29.90R  
 
CLICK HERE TO GO TO PREVIOUS BULLETINS.

The Nexlab NE Page
The Nexlab KS Page Main Text Page